Year,Month,Day,Hour,Minute,Value (Times are PST for insolation in W/m^2)
2010,07,13,00,00,0.00
2010,07,13,00,01,0.00
2010,07,13,00,02,0.00
2010,07,13,00,03,0.00
2010,07,13,00,04,0.00
2010,07,13,00,05,0.00
2010,07,13,00,06,0.00
2010,07,13,00,07,0.00
2010,07,13,00,08,0.00
2010,07,13,00,09,0.00
2010,07,13,00,10,0.00
2010,07,13,00,11,0.00
2010,07,13,00,12,0.00
2010,07,13,00,13,0.00
2010,07,13,00,14,0.00
2010,07,13,00,15,0.00
2010,07,13,00,16,0.00
2010,07,13,00,17,0.00
2010,07,13,00,18,0.00
2010,07,13,00,19,0.00
2010,07,13,00,20,0.00
2010,07,13,00,21,0.00
2010,07,13,00,22,0.00
2010,07,13,00,23,0.00
2010,07,13,00,24,0.00
2010,07,13,00,25,0.00
2010,07,13,00,26,0.00
2010,07,13,00,27,0.00
2010,07,13,00,28,0.00
2010,07,13,00,29,0.00
2010,07,13,00,30,0.00
2010,07,13,00,31,0.00
2010,07,13,00,32,0.00
2010,07,13,00,33,0.00
2010,07,13,00,34,0.00
2010,07,13,00,35,0.00
2010,07,13,00,36,0.00
2010,07,13,00,37,0.00
2010,07,13,00,38,0.00
2010,07,13,00,39,0.00
2010,07,13,00,40,0.00
2010,07,13,00,41,0.00
2010,07,13,00,42,0.00
2010,07,13,00,43,0.00
2010,07,13,00,44,0.00
2010,07,13,00,45,0.00
2010,07,13,00,46,0.00
2010,07,13,00,47,0.00
2010,07,13,00,48,0.00
2010,07,13,00,49,0.00
2010,07,13,00,50,0.00
2010,07,13,00,51,0.00
2010,07,13,00,52,0.00
2010,07,13,00,53,0.00
2010,07,13,00,54,0.00
2010,07,13,00,55,0.00
2010,07,13,00,56,0.00
2010,07,13,00,57,0.00
2010,07,13,00,58,0.00
2010,07,13,00,59,0.00
2010,07,13,01,00,0.00
2010,07,13,01,01,0.00
2010,07,13,01,02,0.00
2010,07,13,01,06,0.00
2010,07,13,01,07,0.00
2010,07,13,01,08,0.00
2010,07,13,01,09,0.00
2010,07,13,01,10,0.00
2010,07,13,01,11,0.00
2010,07,13,01,12,0.00
2010,07,13,01,13,0.00
2010,07,13,01,14,0.00
2010,07,13,01,15,0.00
2010,07,13,01,16,0.00
2010,07,13,01,17,0.00
2010,07,13,01,18,0.00
2010,07,13,01,19,0.00
2010,07,13,01,20,0.00
2010,07,13,01,21,0.00
2010,07,13,01,22,0.00
2010,07,13,01,23,0.00
2010,07,13,01,24,0.00
2010,07,13,01,25,0.00
2010,07,13,01,26,0.00
2010,07,13,01,27,0.00
2010,07,13,01,28,0.00
2010,07,13,01,29,0.00
2010,07,13,01,30,0.00
2010,07,13,01,31,0.00
2010,07,13,01,32,0.00
2010,07,13,01,33,0.00
2010,07,13,01,34,0.00
2010,07,13,01,35,0.00
2010,07,13,01,36,0.00
2010,07,13,01,37,0.00
2010,07,13,01,38,0.00
2010,07,13,01,39,0.00
2010,07,13,01,40,0.00
2010,07,13,01,41,0.00
2010,07,13,01,42,0.00
2010,07,13,01,43,0.00
2010,07,13,01,44,0.00
2010,07,13,01,45,0.00
2010,07,13,01,46,0.00
2010,07,13,01,47,0.00
2010,07,13,01,48,0.00
2010,07,13,01,49,0.00
2010,07,13,01,50,0.00
2010,07,13,01,51,0.00
2010,07,13,01,52,0.00
2010,07,13,01,53,0.00
2010,07,13,01,54,0.00
2010,07,13,01,55,0.00
2010,07,13,01,56,0.00
2010,07,13,01,57,0.00
2010,07,13,01,58,0.00
2010,07,13,01,59,0.00
2010,07,13,02,00,0.00
2010,07,13,02,01,0.00
2010,07,13,02,02,0.00
2010,07,13,02,03,0.00
2010,07,13,02,04,0.00
2010,07,13,02,05,0.00
2010,07,13,02,06,0.00
2010,07,13,02,07,0.00
2010,07,13,02,08,0.00
2010,07,13,02,09,0.00
2010,07,13,02,10,0.00
2010,07,13,02,11,0.00
2010,07,13,02,12,0.00
2010,07,13,02,13,0.00
2010,07,13,02,14,0.00
2010,07,13,02,15,0.00
2010,07,13,02,16,0.00
2010,07,13,02,17,0.00
2010,07,13,02,18,0.00
2010,07,13,02,19,0.00
2010,07,13,02,20,0.00
2010,07,13,02,21,0.00
2010,07,13,02,22,0.00
2010,07,13,02,23,0.00
2010,07,13,02,24,0.00
2010,07,13,02,25,0.00
2010,07,13,02,26,0.00
2010,07,13,02,27,0.00
2010,07,13,02,28,0.00
2010,07,13,02,29,0.00
2010,07,13,02,30,0.00
2010,07,13,02,31,0.00
2010,07,13,02,32,0.00
2010,07,13,02,33,0.00
2010,07,13,02,34,0.00
2010,07,13,02,35,0.00
2010,07,13,02,36,0.00
2010,07,13,02,37,0.00
2010,07,13,02,38,0.00
2010,07,13,02,39,0.00
2010,07,13,02,40,0.00
2010,07,13,02,41,0.00
2010,07,13,02,42,0.00
2010,07,13,02,43,0.00
2010,07,13,02,44,0.00
2010,07,13,02,45,0.00
2010,07,13,02,46,0.00
2010,07,13,02,47,0.00
2010,07,13,02,48,0.00
2010,07,13,02,49,0.00
2010,07,13,02,50,0.00
2010,07,13,02,51,0.00
2010,07,13,02,52,0.00
2010,07,13,02,53,0.00
2010,07,13,02,54,0.00
2010,07,13,02,55,0.00
2010,07,13,02,56,0.00
2010,07,13,02,57,0.00
2010,07,13,02,58,0.00
2010,07,13,02,59,0.00
2010,07,13,03,00,0.00
2010,07,13,03,01,0.00
2010,07,13,03,02,0.00
2010,07,13,03,03,0.00
2010,07,13,03,04,0.00
2010,07,13,03,05,0.00
2010,07,13,03,06,0.00
2010,07,13,03,07,0.00
2010,07,13,03,08,0.00
2010,07,13,03,09,0.00
2010,07,13,03,10,0.00
2010,07,13,03,11,0.00
2010,07,13,03,12,0.00
2010,07,13,03,13,0.00
2010,07,13,03,14,0.00
2010,07,13,03,15,0.00
2010,07,13,03,16,0.00
2010,07,13,03,17,0.00
2010,07,13,03,18,0.00
2010,07,13,03,19,0.00
2010,07,13,03,20,0.00
2010,07,13,03,21,0.00
2010,07,13,03,22,0.00
2010,07,13,03,23,0.00
2010,07,13,03,24,0.00
2010,07,13,03,25,0.00
2010,07,13,03,26,0.00
2010,07,13,03,27,0.00
2010,07,13,03,28,0.00
2010,07,13,03,29,0.00
2010,07,13,03,30,0.00
2010,07,13,03,31,0.00
2010,07,13,03,32,0.00
2010,07,13,03,33,0.00
2010,07,13,03,34,0.00
2010,07,13,03,35,0.00
2010,07,13,03,36,0.00
2010,07,13,03,37,0.00
2010,07,13,03,38,0.00
2010,07,13,03,39,0.00
2010,07,13,03,40,0.00
2010,07,13,03,41,0.00
2010,07,13,03,42,0.00
2010,07,13,03,43,0.00
2010,07,13,03,44,0.00
2010,07,13,03,45,0.00
2010,07,13,03,46,0.00
2010,07,13,03,47,0.00
2010,07,13,03,48,0.00
2010,07,13,03,49,0.00
2010,07,13,03,50,0.00
2010,07,13,03,51,0.00
2010,07,13,03,52,0.00
2010,07,13,03,53,0.00
2010,07,13,03,54,0.00
2010,07,13,03,55,0.00
2010,07,13,03,56,0.00
2010,07,13,03,57,0.00
2010,07,13,03,58,0.00
2010,07,13,03,59,0.00
2010,07,13,04,00,0.00
2010,07,13,04,01,0.00
2010,07,13,04,02,0.00
2010,07,13,04,03,0.00
2010,07,13,04,04,0.00
2010,07,13,04,05,0.00
2010,07,13,04,06,0.00
2010,07,13,04,07,0.00
2010,07,13,04,08,0.00
2010,07,13,04,09,0.00
2010,07,13,04,10,0.00
2010,07,13,04,11,0.00
2010,07,13,04,12,0.00
2010,07,13,04,13,0.00
2010,07,13,04,14,0.00
2010,07,13,04,15,0.00
2010,07,13,04,16,0.00
2010,07,13,04,17,0.00
2010,07,13,04,18,0.00
2010,07,13,04,19,0.00
2010,07,13,04,20,0.00
2010,07,13,04,21,0.00
2010,07,13,04,22,0.00
2010,07,13,04,23,0.00
2010,07,13,04,24,0.00
2010,07,13,04,25,0.00
2010,07,13,04,26,0.00
2010,07,13,04,27,0.00
2010,07,13,04,28,0.00
2010,07,13,04,29,0.00
2010,07,13,04,30,0.00
2010,07,13,04,31,0.00
2010,07,13,04,32,0.00
2010,07,13,04,33,0.00
2010,07,13,04,34,0.00
2010,07,13,04,35,0.00
2010,07,13,04,36,0.00
2010,07,13,04,37,0.00
2010,07,13,04,38,0.00
2010,07,13,04,39,0.00
2010,07,13,04,40,0.00
2010,07,13,04,41,0.00
2010,07,13,04,42,0.00
2010,07,13,04,43,0.00
2010,07,13,04,44,0.00
2010,07,13,04,45,0.00
2010,07,13,04,46,0.00
2010,07,13,04,47,0.00
2010,07,13,04,48,0.00
2010,07,13,04,49,0.00
2010,07,13,04,50,0.00
2010,07,13,04,51,0.00
2010,07,13,04,52,0.00
2010,07,13,04,53,0.00
2010,07,13,04,54,0.00
2010,07,13,04,55,0.00
2010,07,13,04,56,0.00
2010,07,13,04,57,0.00
2010,07,13,04,58,0.00
2010,07,13,04,59,0.00
2010,07,13,05,00,0.00
2010,07,13,05,01,0.00
2010,07,13,05,02,0.00
2010,07,13,05,03,0.00
2010,07,13,05,04,0.00
2010,07,13,05,05,0.00
2010,07,13,05,06,0.00
2010,07,13,05,07,0.00
2010,07,13,05,08,0.00
2010,07,13,05,09,0.00
2010,07,13,05,10,0.00
2010,07,13,05,11,0.00
2010,07,13,05,12,0.00
2010,07,13,05,13,0.00
2010,07,13,05,14,0.00
2010,07,13,05,15,0.00
2010,07,13,05,16,0.00
2010,07,13,05,17,0.00
2010,07,13,05,18,0.00
2010,07,13,05,19,0.00
2010,07,13,05,20,0.00
2010,07,13,05,21,0.00
2010,07,13,05,22,0.00
2010,07,13,05,23,0.00
2010,07,13,05,24,0.00
2010,07,13,05,25,0.00
2010,07,13,05,26,0.00
2010,07,13,05,27,0.00
2010,07,13,05,28,0.00
2010,07,13,05,29,0.00
2010,07,13,05,30,0.00
2010,07,13,05,31,0.00
2010,07,13,05,32,0.00
2010,07,13,05,33,0.00
2010,07,13,05,34,0.00
2010,07,13,05,35,0.00
2010,07,13,05,36,0.00
2010,07,13,05,37,0.00
2010,07,13,05,38,0.00
2010,07,13,05,39,0.30
2010,07,13,05,40,5.00
2010,07,13,05,41,5.00
2010,07,13,05,42,5.00
2010,07,13,05,43,5.00
2010,07,13,05,44,5.00
2010,07,13,05,45,0.30
2010,07,13,05,46,0.00
2010,07,13,05,47,0.00
2010,07,13,05,48,0.00
2010,07,13,05,49,0.00
2010,07,13,05,50,0.00
2010,07,13,05,51,0.00
2010,07,13,05,52,0.00
2010,07,13,05,53,0.00
2010,07,13,05,54,0.00
2010,07,13,05,55,0.00
2010,07,13,05,56,0.00
2010,07,13,05,57,0.00
2010,07,13,05,58,0.00
2010,07,13,05,59,0.00
2010,07,13,06,00,2.60
2010,07,13,06,01,5.00
2010,07,13,06,02,5.00
2010,07,13,06,03,5.00
2010,07,13,06,04,5.00
2010,07,13,06,05,5.00
2010,07,13,06,06,6.20
2010,07,13,06,07,7.00
2010,07,13,06,08,7.00
2010,07,13,06,09,7.30
2010,07,13,06,10,9.00
2010,07,13,06,11,9.90
2010,07,13,06,12,11.00
2010,07,13,06,13,11.70
2010,07,13,06,14,13.80
2010,07,13,06,15,16.00
2010,07,13,06,16,16.60
2010,07,13,06,17,18.50
2010,07,13,06,18,20.20
2010,07,13,06,19,21.00
2010,07,13,06,20,22.90
2010,07,13,06,21,25.60
2010,07,13,06,22,29.50
2010,07,13,06,23,34.40
2010,07,13,06,24,38.90
2010,07,13,06,25,44.70
2010,07,13,06,26,48.80
2010,07,13,06,27,50.10
2010,07,13,06,28,55.50
2010,07,13,06,29,59.10
2010,07,13,06,30,61.30
2010,07,13,06,31,62.80
2010,07,13,06,32,62.90
2010,07,13,06,33,62.00
2010,07,13,06,34,61.30
2010,07,13,06,35,58.90
2010,07,13,06,36,58.00
2010,07,13,06,37,56.30
2010,07,13,06,38,56.00
2010,07,13,06,39,56.00
2010,07,13,06,40,56.00
2010,07,13,06,41,54.80
2010,07,13,06,42,55.40
2010,07,13,06,43,56.00
2010,07,13,06,44,58.00
2010,07,13,06,45,58.50
2010,07,13,06,46,60.00
2010,07,13,06,47,61.20
2010,07,13,06,48,62.00
2010,07,13,06,49,62.00
2010,07,13,06,50,57.40
2010,07,13,06,51,52.40
2010,07,13,06,52,46.90
2010,07,13,06,53,42.90
2010,07,13,06,54,40.50
2010,07,13,06,55,40.00
2010,07,13,06,56,40.30
2010,07,13,06,57,42.00
2010,07,13,06,58,42.00
2010,07,13,06,59,40.80
2010,07,13,07,00,37.90
2010,07,13,07,01,36.90
2010,07,13,07,02,34.60
2010,07,13,07,03,32.70
2010,07,13,07,04,30.10
2010,07,13,07,05,26.10
2010,07,13,07,06,23.40
2010,07,13,07,07,21.10
2010,07,13,07,08,21.00
2010,07,13,07,09,21.70
2010,07,13,07,10,24.10
2010,07,13,07,11,25.00
2010,07,13,07,12,25.80
2010,07,13,07,13,26.00
2010,07,13,07,14,26.40
2010,07,13,07,15,29.50
2010,07,13,07,16,33.60
2010,07,13,07,17,38.20
2010,07,13,07,18,43.00
2010,07,13,07,19,47.60
2010,07,13,07,20,53.80
2010,07,13,07,21,57.70
2010,07,13,07,22,60.00
2010,07,13,07,23,63.40
2010,07,13,07,24,65.00
2010,07,13,07,25,70.00
2010,07,13,07,26,70.00
2010,07,13,07,27,70.00
2010,07,13,07,28,70.00
2010,07,13,07,29,70.00
2010,07,13,07,30,70.00
2010,07,13,07,31,72.30
2010,07,13,07,32,73.50
2010,07,13,07,33,71.20
2010,07,13,07,34,68.30
2010,07,13,07,35,64.10
2010,07,13,07,36,60.60
2010,07,13,07,37,57.70
2010,07,13,07,38,56.00
2010,07,13,07,39,56.90
2010,07,13,07,40,59.30
2010,07,13,07,41,61.60
2010,07,13,07,42,64.90
2010,07,13,07,43,69.80
2010,07,13,07,44,75.60
2010,07,13,07,45,81.40
2010,07,13,07,46,86.50
2010,07,13,07,47,89.60
2010,07,13,07,48,88.00
2010,07,13,07,49,82.90
2010,07,13,07,50,78.30
2010,07,13,07,51,77.00
2010,07,13,07,52,76.40
2010,07,13,07,53,76.80
2010,07,13,07,54,77.50
2010,07,13,07,55,86.80
2010,07,13,07,56,90.40
2010,07,13,07,57,92.10
2010,07,13,07,58,93.00
2010,07,13,07,59,91.30
2010,07,13,08,00,90.20
2010,07,13,08,01,91.50
2010,07,13,08,02,95.10
2010,07,13,08,03,101.20
2010,07,13,08,04,106.10
2010,07,13,08,05,108.70
2010,07,13,08,06,108.60
2010,07,13,08,07,104.20
2010,07,13,08,08,101.20
2010,07,13,08,09,98.80
2010,07,13,08,10,95.80
2010,07,13,08,11,90.50
2010,07,13,08,12,83.30
2010,07,13,08,13,75.70
2010,07,13,08,14,69.90
2010,07,13,08,15,64.80
2010,07,13,08,16,62.30
2010,07,13,08,17,60.20
2010,07,13,08,18,58.30
2010,07,13,08,19,60.00
2010,07,13,08,20,62.10
2010,07,13,08,21,65.00
2010,07,13,08,22,62.80
2010,07,13,08,23,60.20
2010,07,13,08,24,60.00
2010,07,13,08,25,60.00
2010,07,13,08,26,59.10
2010,07,13,08,27,58.00
2010,07,13,08,28,58.00
2010,07,13,08,29,56.00
2010,07,13,08,30,53.20
2010,07,13,08,31,46.50
2010,07,13,08,32,38.30
2010,07,13,08,33,31.60
2010,07,13,08,34,33.90
2010,07,13,08,35,34.80
2010,07,13,08,36,32.00
2010,07,13,08,37,32.00
2010,07,13,08,38,32.00
2010,07,13,08,39,32.00
2010,07,13,08,40,32.00
2010,07,13,08,41,32.10
2010,07,13,08,42,33.00
2010,07,13,08,43,33.00
2010,07,13,08,44,33.00
2010,07,13,08,45,33.00
2010,07,13,08,46,33.00
2010,07,13,08,47,33.00
2010,07,13,08,48,33.00
2010,07,13,08,49,33.00
2010,07,13,08,50,33.00
2010,07,13,08,51,34.40
2010,07,13,08,52,35.00
2010,07,13,08,53,35.00
2010,07,13,08,54,35.60
2010,07,13,08,55,37.00
2010,07,13,08,56,37.00
2010,07,13,08,57,37.00
2010,07,13,08,58,38.80
2010,07,13,08,59,39.00
2010,07,13,09,00,39.00
2010,07,13,09,01,39.00
2010,07,13,09,02,39.60
2010,07,13,09,03,40.00
2010,07,13,09,04,40.00
2010,07,13,09,05,36.20
2010,07,13,09,06,32.30
2010,07,13,09,07,33.00
2010,07,13,09,08,34.30
2010,07,13,09,09,33.40
2010,07,13,09,10,34.90
2010,07,13,09,11,37.60
2010,07,13,09,12,41.50
2010,07,13,09,13,46.40
2010,07,13,09,14,51.50
2010,07,13,09,15,56.90
2010,07,13,09,16,62.10
2010,07,13,09,17,68.90
2010,07,13,09,18,76.00
2010,07,13,09,19,77.60
2010,07,13,09,20,81.70
2010,07,13,09,21,83.00
2010,07,13,09,22,82.60
2010,07,13,09,23,79.00
2010,07,13,09,24,79.70
2010,07,13,09,25,84.70
2010,07,13,09,26,80.50
2010,07,13,09,27,74.40
2010,07,13,09,28,72.00
2010,07,13,09,29,71.50
2010,07,13,09,30,72.90
2010,07,13,09,31,74.10
2010,07,13,09,32,72.00
2010,07,13,09,33,72.00
2010,07,13,09,34,66.80
2010,07,13,09,35,65.50
2010,07,13,09,36,67.80
2010,07,13,09,37,67.80
2010,07,13,09,38,65.50
2010,07,13,09,39,65.00
2010,07,13,09,40,67.50
2010,07,13,09,41,71.30
2010,07,13,09,42,76.10
2010,07,13,09,43,80.20
2010,07,13,09,44,78.10
2010,07,13,09,45,77.00
2010,07,13,09,46,69.80
2010,07,13,09,47,68.40
2010,07,13,09,48,67.00
2010,07,13,09,49,68.90
2010,07,13,09,50,74.70
2010,07,13,09,51,76.70
2010,07,13,09,52,93.30
2010,07,13,09,53,106.60
2010,07,13,09,54,88.00
2010,07,13,09,55,71.90
2010,07,13,09,56,67.40
2010,07,13,09,57,67.10
2010,07,13,09,58,68.60
2010,07,13,09,59,67.00
2010,07,13,10,00,67.00
2010,07,13,10,01,68.40
2010,07,13,10,02,69.00
2010,07,13,10,03,69.90
2010,07,13,10,04,70.00
2010,07,13,10,05,64.10
2010,07,13,10,06,53.50
2010,07,13,10,07,55.10
2010,07,13,10,08,61.90
2010,07,13,10,09,69.50
2010,07,13,10,10,74.80
2010,07,13,10,11,78.70
2010,07,13,10,12,82.20
2010,07,13,10,13,83.00
2010,07,13,10,14,81.30
2010,07,13,10,15,81.20
2010,07,13,10,16,83.30
2010,07,13,10,17,85.70
2010,07,13,10,18,89.70
2010,07,13,10,19,93.90
2010,07,13,10,20,97.70
2010,07,13,10,21,105.60
2010,07,13,10,22,110.60
2010,07,13,10,23,115.90
2010,07,13,10,24,119.20
2010,07,13,10,25,120.70
2010,07,13,10,26,122.80
2010,07,13,10,27,131.90
2010,07,13,10,28,146.10
2010,07,13,10,29,156.40
2010,07,13,10,30,152.30
2010,07,13,10,31,148.20
2010,07,13,10,32,152.70
2010,07,13,10,33,160.30
2010,07,13,10,34,169.90
2010,07,13,10,35,170.60
2010,07,13,10,36,176.60
2010,07,13,10,37,166.00
2010,07,13,10,38,156.20
2010,07,13,10,39,148.10
2010,07,13,10,40,159.50
2010,07,13,10,41,196.90
2010,07,13,10,42,219.80
2010,07,13,10,43,288.50
2010,07,13,10,44,306.00
2010,07,13,10,45,306.00
2010,07,13,10,46,468.50
2010,07,13,10,47,749.20
2010,07,13,10,48,759.20
2010,07,13,10,49,736.10
2010,07,13,10,50,679.90
2010,07,13,10,51,654.70
2010,07,13,10,52,692.30
2010,07,13,10,53,724.20
2010,07,13,10,54,717.20
2010,07,13,10,55,719.80
2010,07,13,10,56,720.20
2010,07,13,10,57,678.90
2010,07,13,10,58,670.30
2010,07,13,10,59,606.60
2010,07,13,11,00,591.00
2010,07,13,11,01,591.00
2010,07,13,11,02,591.00
2010,07,13,11,03,615.90
2010,07,13,11,04,664.50
2010,07,13,11,05,657.00
2010,07,13,11,06,657.00
2010,07,13,11,07,633.40
2010,07,13,11,08,186.60
2010,07,13,11,09,186.20
2010,07,13,11,10,161.80
2010,07,13,11,11,152.80
2010,07,13,11,12,160.50
2010,07,13,11,13,180.80
2010,07,13,11,14,214.00
2010,07,13,11,15,214.00
2010,07,13,11,16,554.60
2010,07,13,11,17,932.40
2010,07,13,11,18,966.70
2010,07,13,11,19,1015.80
2010,07,13,11,20,863.00
2010,07,13,11,21,237.80
2010,07,13,11,22,225.80
2010,07,13,11,23,216.70
2010,07,13,11,24,205.90
2010,07,13,11,25,199.20
2010,07,13,11,26,191.50
2010,07,13,11,27,183.40
2010,07,13,11,28,176.50
2010,07,13,11,29,174.00
2010,07,13,11,30,175.60
2010,07,13,11,31,184.70
2010,07,13,11,32,188.00
2010,07,13,11,33,186.80
2010,07,13,11,34,181.80
2010,07,13,11,35,174.40
2010,07,13,11,36,169.50
2010,07,13,11,37,172.40
2010,07,13,11,38,178.80
2010,07,13,11,39,182.80
2010,07,13,11,40,189.00
2010,07,13,11,41,195.70
2010,07,13,11,42,199.50
2010,07,13,11,43,206.10
2010,07,13,11,44,207.60
2010,07,13,11,45,209.00
2010,07,13,11,46,211.20
2010,07,13,11,47,218.20
2010,07,13,11,48,220.90
2010,07,13,11,49,235.40
2010,07,13,11,50,227.60
2010,07,13,11,51,238.00
2010,07,13,11,52,273.30
2010,07,13,11,53,238.60
2010,07,13,11,54,248.40
2010,07,13,11,55,263.10
2010,07,13,11,56,282.50
2010,07,13,11,57,277.10
2010,07,13,11,58,312.80
2010,07,13,11,59,399.20
2010,07,13,12,00,459.20
2010,07,13,12,01,1092.20
2010,07,13,12,02,1086.50
2010,07,13,12,03,1078.50
2010,07,13,12,04,1074.00
2010,07,13,12,05,1074.00
2010,07,13,12,06,1074.00
2010,07,13,12,07,1065.20
2010,07,13,12,08,1044.20
2010,07,13,12,09,1053.00
2010,07,13,12,10,1057.60
2010,07,13,12,11,1064.20
2010,07,13,12,12,1063.10
2010,07,13,12,13,1065.70
2010,07,13,12,14,1076.00
2010,07,13,12,15,1076.00
2010,07,13,12,16,1076.00
2010,07,13,12,17,1076.00
2010,07,13,12,18,950.50
2010,07,13,12,19,238.60
2010,07,13,12,20,245.10
2010,07,13,12,21,266.00
2010,07,13,12,22,233.40
2010,07,13,12,23,202.40
2010,07,13,12,24,210.90
2010,07,13,12,25,228.30
2010,07,13,12,26,251.60
2010,07,13,12,27,264.90
2010,07,13,12,28,269.70
2010,07,13,12,29,288.90
2010,07,13,12,30,380.00
2010,07,13,12,31,344.30
2010,07,13,12,32,267.00
2010,07,13,12,33,273.90
2010,07,13,12,34,278.00
2010,07,13,12,35,278.00
2010,07,13,12,36,341.30
2010,07,13,12,37,700.00
2010,07,13,12,38,895.60
2010,07,13,12,39,1113.00
2010,07,13,12,40,1113.00
2010,07,13,12,41,932.00
2010,07,13,12,42,941.40
2010,07,13,12,43,1107.00
2010,07,13,12,44,1107.00
2010,07,13,12,45,1107.00
2010,07,13,12,46,1107.00
2010,07,13,12,47,787.70
2010,07,13,12,48,770.00
2010,07,13,12,49,770.00
2010,07,13,12,50,770.00
2010,07,13,12,51,770.00
2010,07,13,12,52,770.00
2010,07,13,12,53,1004.70
2010,07,13,12,54,1013.00
2010,07,13,12,55,1010.20
2010,07,13,12,56,1005.00
2010,07,13,12,57,996.80
2010,07,13,12,58,990.50
2010,07,13,12,59,990.70
2010,07,13,13,00,986.90
2010,07,13,13,01,983.60
2010,07,13,13,02,983.00
2010,07,13,13,03,978.50
2010,07,13,13,04,972.60
2010,07,13,13,05,967.50
2010,07,13,13,06,968.50
2010,07,13,13,07,966.20
2010,07,13,13,08,963.90
2010,07,13,13,09,964.30
2010,07,13,13,10,968.40
2010,07,13,13,11,969.50
2010,07,13,13,12,971.50
2010,07,13,13,13,970.00
2010,07,13,13,14,973.50
2010,07,13,13,15,976.70
2010,07,13,13,16,976.10
2010,07,13,13,17,974.00
2010,07,13,13,18,976.20
2010,07,13,13,19,981.90
2010,07,13,13,20,986.00
2010,07,13,13,21,1007.50
2010,07,13,13,22,1014.00
2010,07,13,13,23,390.00
2010,07,13,13,24,390.00
2010,07,13,13,25,390.00
2010,07,13,13,26,390.00
2010,07,13,13,27,390.00
2010,07,13,13,28,421.30
2010,07,13,13,29,1049.70
2010,07,13,13,30,1056.00
2010,07,13,13,31,1056.00
2010,07,13,13,32,1105.30
2010,07,13,13,33,1143.00
2010,07,13,13,34,1137.10
2010,07,13,13,35,1124.20
2010,07,13,13,36,1105.30
2010,07,13,13,37,1061.60
2010,07,13,13,38,1047.20
2010,07,13,13,39,1056.00
2010,07,13,13,40,1056.00
2010,07,13,13,41,1039.00
2010,07,13,13,42,988.00
2010,07,13,13,43,989.50
2010,07,13,13,44,991.00
2010,07,13,13,45,991.00
2010,07,13,13,46,982.80
2010,07,13,13,47,980.50
2010,07,13,13,48,978.20
2010,07,13,13,49,975.30
2010,07,13,13,50,971.20
2010,07,13,13,51,967.50
2010,07,13,13,52,964.70
2010,07,13,13,53,963.50
2010,07,13,13,54,967.90
2010,07,13,13,55,977.40
2010,07,13,13,56,979.50
2010,07,13,13,57,970.50
2010,07,13,13,58,973.70
2010,07,13,13,59,971.10
2010,07,13,14,00,970.40
2010,07,13,14,01,970.80
2010,07,13,14,02,967.80
2010,07,13,14,03,965.20
2010,07,13,14,04,965.30
2010,07,13,14,05,967.60
2010,07,13,14,06,969.50
2010,07,13,14,07,970.00
2010,07,13,14,08,971.60
2010,07,13,14,09,976.80
2010,07,13,14,10,983.00
2010,07,13,14,11,980.50
2010,07,13,14,12,974.00
2010,07,13,14,13,970.70
2010,07,13,14,14,964.80
2010,07,13,14,15,961.90
2010,07,13,14,16,960.00
2010,07,13,14,17,958.50
2010,07,13,14,18,959.00
2010,07,13,14,19,962.00
2010,07,13,14,20,962.80
2010,07,13,14,21,962.90
2010,07,13,14,22,961.00
2010,07,13,14,23,958.70
2010,07,13,14,24,956.80
2010,07,13,14,25,956.70
2010,07,13,14,26,958.00
2010,07,13,14,27,952.80
2010,07,13,14,28,951.00
2010,07,13,14,29,950.20
2010,07,13,14,30,950.20
2010,07,13,14,31,946.20
2010,07,13,14,32,940.60
2010,07,13,14,33,941.70
2010,07,13,14,34,940.50
2010,07,13,14,35,939.90
2010,07,13,14,36,935.80
2010,07,13,14,37,936.50
2010,07,13,14,38,937.00
2010,07,13,14,39,942.00
2010,07,13,14,40,941.40
2010,07,13,14,41,940.00
2010,07,13,14,42,940.00
2010,07,13,14,43,936.30
2010,07,13,14,44,938.60
2010,07,13,14,45,933.30
2010,07,13,14,46,935.00
2010,07,13,14,47,934.10
2010,07,13,14,48,933.00
2010,07,13,14,49,936.20
2010,07,13,14,50,939.80
2010,07,13,14,51,941.50
2010,07,13,14,52,947.00
2010,07,13,14,53,945.70
2010,07,13,14,54,952.40
2010,07,13,14,55,961.20
2010,07,13,14,56,964.20
2010,07,13,14,57,957.40
2010,07,13,14,58,961.90
2010,07,13,14,59,957.90
2010,07,13,15,00,949.50
2010,07,13,15,01,934.80
2010,07,13,15,02,924.60
2010,07,13,15,03,917.50
2010,07,13,15,04,915.30
2010,07,13,15,05,912.40
2010,07,13,15,06,909.60
2010,07,13,15,07,909.00
2010,07,13,15,08,906.80
2010,07,13,15,09,905.00
2010,07,13,15,10,903.80
2010,07,13,15,11,902.00
2010,07,13,15,12,903.40
2010,07,13,15,13,900.60
2010,07,13,15,14,901.30
2010,07,13,15,15,898.50
2010,07,13,15,16,901.70
2010,07,13,15,17,907.80
2010,07,13,15,18,911.00
2010,07,13,15,19,911.00
2010,07,13,15,20,908.90
2010,07,13,15,21,897.40
2010,07,13,15,22,892.20
2010,07,13,15,23,885.70
2010,07,13,15,24,880.30
2010,07,13,15,25,879.00
2010,07,13,15,26,878.40
2010,07,13,15,27,874.70
2010,07,13,15,28,874.50
2010,07,13,15,29,876.30
2010,07,13,15,30,875.50
2010,07,13,15,31,865.50
2010,07,13,15,32,865.00
2010,07,13,15,33,864.40
2010,07,13,15,34,860.60
2010,07,13,15,35,856.70
2010,07,13,15,36,854.40
2010,07,13,15,37,852.00
2010,07,13,15,38,866.50
2010,07,13,15,39,863.20
2010,07,13,15,40,860.00
2010,07,13,15,41,852.50
2010,07,13,15,42,845.00
2010,07,13,15,43,844.00
2010,07,13,15,44,844.00
2010,07,13,15,45,842.30
2010,07,13,15,46,838.40
2010,07,13,15,47,837.70
2010,07,13,15,48,837.20
2010,07,13,15,49,838.00
2010,07,13,15,50,837.70
2010,07,13,15,51,838.30
2010,07,13,15,52,837.10
2010,07,13,15,53,836.50
2010,07,13,15,54,832.20
2010,07,13,15,55,832.10
2010,07,13,15,56,834.80
2010,07,13,15,57,823.10
2010,07,13,15,58,814.90
2010,07,13,15,59,810.50
2010,07,13,16,00,813.60
2010,07,13,16,01,820.40
2010,07,13,16,02,814.80
2010,07,13,16,03,809.50
2010,07,13,16,04,809.60
2010,07,13,16,05,810.00
2010,07,13,16,06,809.70
2010,07,13,16,07,803.90
2010,07,13,16,08,802.40
2010,07,13,16,09,803.90
2010,07,13,16,10,798.20
2010,07,13,16,11,796.80
2010,07,13,16,12,782.70
2010,07,13,16,13,781.70
2010,07,13,16,14,779.70
2010,07,13,16,15,778.10
2010,07,13,16,16,778.30
2010,07,13,16,17,784.50
2010,07,13,16,18,784.20
2010,07,13,16,19,778.80
2010,07,13,16,20,761.90
2010,07,13,16,21,770.60
2010,07,13,16,22,760.30
2010,07,13,16,23,759.00
2010,07,13,16,24,757.60
2010,07,13,16,25,754.00
2010,07,13,16,26,754.70
2010,07,13,16,27,753.90
2010,07,13,16,28,747.20
2010,07,13,16,29,740.80
2010,07,13,16,30,737.90
2010,07,13,16,31,736.50
2010,07,13,16,32,733.30
2010,07,13,16,33,729.80
2010,07,13,16,34,729.00
2010,07,13,16,35,726.50
2010,07,13,16,36,724.00
2010,07,13,16,37,722.20
2010,07,13,16,38,716.20
2010,07,13,16,39,714.40
2010,07,13,16,40,712.50
2010,07,13,16,41,708.40
2010,07,13,16,42,706.40
2010,07,13,16,43,702.40
2010,07,13,16,44,701.00
2010,07,13,16,45,700.40
2010,07,13,16,46,698.50
2010,07,13,16,47,698.00
2010,07,13,16,48,695.50
2010,07,13,16,49,692.40
2010,07,13,16,50,689.10
2010,07,13,16,51,686.40
2010,07,13,16,52,686.00
2010,07,13,16,53,683.90
2010,07,13,16,54,678.90
2010,07,13,16,55,673.70
2010,07,13,16,56,671.00
2010,07,13,16,57,669.10
2010,07,13,16,58,664.80
2010,07,13,16,59,661.20
2010,07,13,17,00,660.60
2010,07,13,17,01,658.30
2010,07,13,17,02,656.50
2010,07,13,17,03,651.90
2010,07,13,17,04,649.20
2010,07,13,17,05,646.90
2010,07,13,17,06,644.60
2010,07,13,17,07,641.90
2010,07,13,17,08,640.00
2010,07,13,17,09,638.60
2010,07,13,17,10,633.80
2010,07,13,17,11,630.50
2010,07,13,17,12,625.50
2010,07,13,17,13,624.00
2010,07,13,17,14,621.10
2010,07,13,17,15,617.60
2010,07,13,17,16,615.30
2010,07,13,17,17,613.00
2010,07,13,17,18,611.70